ZHONGXING-19

Last updated on Tue Sep 22 2026 00:03:16 GMT+0000 (Coordinated Universal Time)

1 54230U 22148A 26264.70196293 -.00000085 00000+0 00000+0 0 9990 2 54230 0.0171 164.5689 0004590 16.7442 235.1670 1.00272900 14343
UTC large
Height (km)
Speed (km/s)
/
Latitude / Longitude
Inclination (degrees)
Orbital Period (minutes)
Azimuth
Elevation
Range (km)
Doppler Factor

Next 0 passes for location: London (51.5072 / 0.1276)

No passes found over London.
ZHONGXING-19